Location: Observatory
(52.1446°N, 0.4624°W)
Time: 02:15:35
(UTC+01:00)

ISS - Pass Details

Date: 25 April 2024
Orbit: 409 x 414 km, 51.6° (Epoch: 23 May)

Event Time Altitude Azimuth Distance (km) Brightness Sun altitude
Exits shadow 03:42:14 10° 152° (SSE) 1,490 -1.2 -15.7°
Reaches altitude 10° 03:42:25 10° 149° (SSE) 1,474 -1.2 -15.7°
Maximum altitude 03:43:03 10° 137° (SE) 1,449 -1.1 -15.7°
Drops below altitude 10° 03:43:42 10° 126° (SE) 1,475 -0.9 -15.6°
Sets 03:47:22 0° 84° (E) 2,341 0.8 -15.2°
